sat.trackr.live / text

‹ back to catalog

STARLINK-36957

NORAD 67989 · 2026-039D

PAYLOAD ACTIVE UNKNOWN

§ Identity

Operator
Country
US
Launch date
2026-02-27
Launch site
AFETR
Launch vehicle
Mass (kg)
RCS (m²)

Purposes: comms

External: N2YO · Heavens-Above · Gunter

§ Orbital elements

Epoch: 2026-05-24T22:46:56.284320Z

Period
94.27 min
Inclination
43.0010°
Eccentricity
0.0001258
Mean motion
15.27591556 rev/d
Perigee alt
482.2 km
Apogee alt
483.9 km
Semi-major
6,861.2 km
B*
4.4182e-4
RAAN
338.4905°
Arg perigee
275.3653°
Mean anomaly
84.7055°
Rev number
1,336

§ Raw data

STARLINK-369571 67989U 26039D   26144.94926255  .00011920  00000+0  44182-3 0  99922 67989  43.0010 338.4905 0001258 275.3653  84.7055 15.27591556 13366

JSON: /api/v1/satellites/67989 · /tle

For live sub-satellite position, see the globe view (requires WebGL).

§ Visibility from observer

Set your observer location to see the next 7 days of passes ≥ 10°. The values pass through the URL so the page stays shareable.

No JS? Fill the form by hand. The geolocation button needs JavaScript.